Location: Goettingen
(51.5300°N, 9.9433°E)
Time: 11:06:06
(UTC+01:00)

ISS - Pass Details

Date: 21 March 2023
Orbit: 414 x 423 km, 51.6° (Epoch: 20 March)

Event Time Altitude Azimuth Distance (km) Brightness Sun altitude
Rises 21:02:58 0° 270° (W) 2,357 1.0 -22.7°
Reaches altitude 10° 21:05:04 10° 270° (W) 1,493 -0.2 -22.9°
Enters shadow 21:07:23 42° 274° (W) 612 -2.6 -23.2°
